Regional Weather Roundup
Issued by NWS

Home | Current Version | Previous Version | Text Only | Print | Product List | Glossary Off
Versions: 1 2 3 4 5 6 7 8 9 10 11 12 13 14 15 16 17 18 19 20 21 22 23 24 25 26 27 28 29 30 31 32 33 34 35 36 37 38 39 40 41 42 43 44 45 46 47 48 49 50

000
ASUS43 KDTX 060201
RWRMI
MICHIGAN HOURLY REGIONAL WEATHER ROUNDUP
NATIONAL WEATHER SERVICE DETROIT/PONTIAC MI
1000 PM EDT TUE MAY 05 2015

NOTE: "FAIR" INDICATES FEW OR NO CLOUDS BELOW 12,000 FEET WITH NO
SIGNIFICANT WEATHER AND/OR OBSTRUCTION TO VISIBILITY.

MIZ047>049-052>055-059>063-066>070-074>076-081>083-060300-
SOUTHEAST LOWER MICHIGAN

CITY           SKY/WX    TMP DP  RH WIND       PRES   REMARKS
ADRIAN         LGT RAIN  51  50  96 E8        30.26S FOG
ALMA           CLOUDY    52  47  82 SE5       30.28R
ANN ARBOR      LGT RAIN  52  51  97 E5        30.27R FOG
BAD AXE        PTCLDY    46  43  87 E5        30.29S
CARO           MOCLDY    47  45  93 CALM      30.28R
DETROIT CITY   CLOUDY    49  47  93 E5        30.29R
DETROIT        LGT RAIN  53  51  93 NE5       30.28R
FLINT          MOCLDY    52  48  86 E5        30.28R
GROSSE ILE     HVY RAIN  52  48  87 E5        30.27R
HILLSDALE      CLOUDY    51  51 100 E8        30.24F FOG
HOWELL         CLOUDY    52  51  99 CALM      30.28R FOG

CITY           SKY/WX    TMP DP  RH WIND       PRES   REMARKS
JACKSON        LGT RAIN  50  49  96 E6        30.26S FOG
LAMBERTVILLE   LGT RAIN  52  50  93 E5        30.27S
LANSING        CLOUDY    52  50  93 E3        30.28R
LAPEER         NOT AVBL
MASON          RAIN      51  49  94 CALM      30.28R
MONROE         RAIN      52  50  93 E5        30.25F
PONTIAC        CLOUDY    52  50  93 E6        30.27R
PORT HOPE        N/A     39  36  89 CALM      30.29R
PORT HURON     CLOUDY    46  46 100 CALM      30.29S
TRI CITIES     MOCLDY    52  45  77 NE5       30.29R
MIDLAND        FAIR      51  43  75 CALM      30.27S
TROY           CLOUDY    51  49  95 E3        30.30R
SAGINAW HB     MOCLDY    52  43  71 NE3       30.28R
$$
MIZ043>046-050>051-056>058-064>065-071>073-077>080-060300-
SOUTHWEST LOWER MICHIGAN

CITY           SKY/WX    TMP DP  RH WIND       PRES   REMARKS
BATTLE CREEK   CLOUDY    51  49  92 E9        30.24F
BENTON HARBOR  CLOUDY    52  50  93 E7        30.21S
BIG RAPIDS     CLOUDY    55  40  58 SW9       30.26R
COLDWATER      LGT RAIN  51  50  95 E6        30.24R
FREMONT        FAIR      55  39  55 E5        30.25S
HOLLAND        CLOUDY    53  50  89 E9        30.25R
GRAND RAPIDS   CLOUDY    53  47  79 E8        30.26R
IONIA          MOCLDY    52  45  77 E5        30.27R
KALAMAZOO      LGT RAIN  52  49  89 VRB3      30.25S
LUDINGTON      CLOUDY    49  41  75 CALM      30.26S
MARSHALL       DRIZZLE   49  48  97 E6        30.24F
MOUNT PLEASANT CLOUDY    54  35  48 E3        30.27R
MUSKEGON       CLOUDY    57  41  55 E8        30.25R
SOUTH HAVEN    CLOUDY    53  51  94 E7        30.22S
$$
MIZ016>042-060300-
NORTHERN LOWER MICHIGAN

CITY           SKY/WX    TMP DP  RH WIND       PRES   REMARKS
ALPENA         MOCLDY    45  40  82 CALM      30.29S
BEAVER ISLAND  PTCLDY    46  35  66 CALM      30.28S
BELLAIRE       MOCLDY    51  38  60 CALM      30.26R
CADILLAC       MOCLDY    57  28  32 S3        30.26R
CHARLEVOIX     MOCLDY    47  32  56 CALM      30.29S
FRANKFORT      MOCLDY    59  23  25 E5        30.24S
GAYLORD        MOCLDY    57  22  25 E3        30.28R
GRAYLING       MOCLDY    47  31  53 CALM      30.29R
HARBOR SPRINGS MOCLDY    58  27  30 NE6       30.27R
HOUGHTON LAKE  MOCLDY    54  33  45 SE6       30.28R
MANISTEE       MOCLDY    46  36  66 CALM      30.26R
OSCODA         MOCLDY    41  39  91 NE3       30.29S
PELLSTON       PTCLDY    47  32  56 CALM      30.28R
ROGERS CITY    PTCLDY    46  42  87 CALM      30.30R
TRAVERSE CITY  MOCLDY    47  35  63 CALM      30.25R
$$
MIZ007>008-015-060300-
EASTERN UPPER MICHIGAN

CITY           SKY/WX    TMP DP  RH WIND       PRES   REMARKS
KINROSS        CLEAR     52  28  40 CALM      30.29R
MACKINAC ISLAN CLEAR     51  28  41 SE5       30.28R
NEWBERRY       CLEAR     55  30  39 NE5       30.29R
S. S. MARIE    CLEAR     56  28  34 NW5       30.28R
MUNISING         N/A     50  33  52 S3        30.26R
$$
MIZ004>006-011>014-085-060300-
CENTRAL UPPER MICHIGAN

CITY           SKY/WX    TMP DP  RH WIND       PRES   REMARKS
MANISTIQUE     PTCLDY    44  32  61 CALM      30.27R
ESCANABA       PTCLDY    48  32  53 CALM      30.26R
MENOMINEE      CLOUDY    54  32  43 CALM      30.25S
SAWYER-GWINN   CLEAR     57  27  30 S6        30.26R
$$
MIZ001>003-009>011-084-060300-
WESTERN UPPER MICHIGAN

CITY           SKY/WX    TMP DP  RH WIND       PRES   REMARKS
IRON MOUNTAIN  PTCLDY    55  28  35 SE3       30.25R
HOUGHTON       CLEAR     49  27  42 E13       30.23R
COPPER HARBOR    N/A     48  30  49 SW10G20   30.23S
IRONWOOD       CLEAR     64  28  25 S5        30.16R
$$

ABBREVIATIONS USED IN REMARKS
   TC - TEMPERATURE IN CELSIUS
  WCI - WIND CHILL INDEX
   HX - HEAT INDEX
  VSB - VISIBILITY




USA.gov is the U.S. government's official web portal to all federal, state and local government web resources and services.